General Aviation Weather

Text Reports

Enter one or more of the following location identifiers separated by a space:

Zip Code, Four-Character ICAO or Three-Character IATA airport codes.

METAR - Aviation Routine Weather Report
PAMM - Metlakatla, Alaska
Updated at 6:56 AM GMT on February 12, 2016 (9:56 PM AKST):
METAR PAMM 120656Z AUTO 08016G19KT 10SM FEW038 OVC048 09/03 A2971 RMK AO1
TAF - Terminal Area Forecast
PAMM - Metlakatla, Alaska
Updated at 6:56 AM GMT on February 12, 2016 (9:56 PM AKST):
No TAF is currently available for this location.
Decoded:
No decoded TAF is available.
PIREP - Pilot Weather Report
PAMM - Metlakatla, Alaska
Updated at 6:56 AM GMT on February 12, 2016 (9:56 PM AKST):
No PIREP is currently available for this location.
AIRMET - Airmens Meteorological Information
PAMM - Metlakatla, Alaska
Updated at 6:56 AM GMT on February 12, 2016 (9:56 PM AKST):
No AIRMET is currently available for this location.
SIGMET - Significant Meteorological Information
PAMM - Metlakatla, Alaska
Updated at 6:56 AM GMT on February 12, 2016 (9:56 PM AKST):
No SIGMET is currently available for this location.
NOTAM - Notice to Airmen
PAMM - Metlakatla, Alaska
Updated at 6:56 AM GMT on February 12, 2016 (9:56 PM AKST):
No NOTAM is currently available for this location.
Forecast Area
PAMM - Metlakatla, Alaska
Updated at 6:56 AM GMT on February 12, 2016 (9:56 PM AKST):
No NOTAM is currently available for this location.
Aviation Weather Maps